GW3250 Weather Reports


time (UTC)temp
F
wind
direction
speed
knots
gust
knots
rain 1hr
in
rain 24hr
in
rain mn
in
humidity
%
barometer
mb
20260901175800 78 184 0.9 0.9 0.00 0.43 0.43 91 1012.8
20260901175256 78 190 0.9 0.9 0.00 0.43 0.43 93 1012.8
20260901174750 77 199 1.7 2.6 0.00 0.43 0.43 93 1013.0
20260901174247 77 182 2.6 2.6 0.00 0.43 0.43 94 1013.0
20260901173742 76 173 0.9 0.9 0.00 0.43 0.43 96 1013.1
20260901173237 74 195 1.7 1.7 0.00 0.43 0.43 98 1013.1
20260901172733 74 188 0.9 0.9 0.00 0.43 0.43 99 1012.7
20260901172232 73 187 0.9 0.9 0.00 0.43 0.43 99 1013.2
20260901171730 73 187 0.9 1.7 0.00 0.43 0.43 99 1013.2
20260901171230 73 178 0.0 0.0 0.00 0.43 0.43 99 1013.3
20260901170729 73 176 0.9 0.9 0.00 0.43 0.43 99 1013.2
20260901170224 72 182 0.9 0.9 0.00 0.43 0.43 99 1013.5
20260901165722 72 168 0.0 0.0 0.00 0.43 0.43 99 1013.3
20260901165217 71 203 0.0 0.9 0.00 0.43 0.43 99 1013.4
20260901164714 70 202 1.7 1.7 0.00 0.43 0.43 99 1013.4
20260901164209 71 202 0.9 0.9 0.00 0.43 0.43 99 1013.5
20260901163705 70 202 0.0 0.0 0.00 0.43 0.43 99 1013.6
20260901163204 71 202 0.0 0.0 0.00 0.43 0.43 99 1013.5
20260901162659 71 202 0.0 0.0 0.00 0.43 0.43 99 1013.9
20260901162158 70 201 0.9 0.9 0.00 0.43 0.43 99 1013.8
20260901161657 69 201 0.0 0.0 0.00 0.43 0.43 99 1014.0
20260901161157 70 162 0.9 0.9 0.00 0.43 0.43 99 1013.9
20260901160654 69 162 0.0 0.0 0.05 0.43 0.43 99 1014.0
20260901160148 68 162 0.9 0.9 0.12 0.43 0.43 99 1013.7
20260901155648 68 162 0.0 0.0 0.19 0.42 0.42 99 1014.2
20260901155143 68 162 0.0 0.0 0.24 0.41 0.41 99 1014.7
20260901154637 68 195 1.7 2.6 0.19 0.39 0.39 99 1014.3
20260901154132 69 163 0.0 0.9 0.07 0.37 0.37 99 1014.6
20260901153622 69 147 0.0 0.0 0.00 0.36 0.36 99 1013.9
20260901153121 69 147 0.0 0.0 0.00 0.36 0.36 99 1013.8
20260901152616 68 147 0.0 0.0 0.00 0.36 0.36 99 1013.9
20260901152114 68 147 0.0 0.9 0.00 0.36 0.36 99 1013.9
20260901151611 69 147 0.0 0.0 0.00 0.36 0.36 99 1014.0
20260901151110 68 147 0.0 0.0 0.00 0.36 0.36 99 1014.0
20260901150603 68 147 0.0 0.0 0.00 0.36 0.36 99 1013.9
20260901145601 68 147 0.0 0.0 0.00 0.36 0.36 99 1014.1
20260901145100 68 147 0.0 0.9 0.00 0.36 0.36 99 1014.0
20260901144556 68 147 0.0 0.0 0.05 0.36 0.36 99 1014.0
20260901144050 67 147 0.0 0.0 0.24 0.36 0.36 99 1014.1
20260901143546 67 146 0.0 0.0 0.61 0.35 0.35 99 1014.4
20260901143038 67 185 0.9 0.9 0.66 0.32 0.32 99 1014.9
20260901142538 67 188 0.9 0.9 0.47 0.25 0.25 99 1015.0
20260901142033 67 177 0.0 0.0 0.35 0.21 0.21 99 1015.2
20260901141533 67 177 0.0 0.9 0.24 0.17 0.17 99 1015.0
20260901141027 67 179 0.0 0.9 0.19 0.15 0.15 99 1014.7
20260901140526 67 202 0.9 0.9 0.07 0.13 0.13 99 1014.6
20260901140021 67 142 0.0 0.0 0.05 0.12 0.12 99 1014.8
20260901135520 67 141 0.9 0.9 0.05 0.12 0.12 99 1014.7
20260901135016 67 181 0.0 0.0 0.12 0.11 0.11 99 1014.7
20260901134511 67 202 0.9 0.9 0.35 0.11 0.11 99 1014.6
20260901134006 68 177 0.0 0.0 0.24 0.09 0.09 99 1014.3
20260901133504 67 196 0.9 0.9 0.12 0.05 0.05 99 1014.7
20260901132958 68 155 0.0 0.0 0.12 0.05 0.05 99 1014.5
20260901132457 68 155 0.0 0.0 0.07 0.03 0.03 99 1014.3
20260901131956 68 155 0.0 0.0 0.07 0.03 0.03 99 1014.4
20260901131451 68 155 0.0 0.0 0.00 0.02 0.02 99 1014.2
20260901130947 68 155 0.0 0.0 0.00 0.02 0.02 99 1014.5
20260901130441 68 155 0.0 0.0 0.00 0.02 0.02 99 1014.4
20260901125938 68 155 0.0 0.9 0.00 0.02 0.02 99 1014.5
20260901125432 68 155 0.0 0.0 0.00 0.02 0.02 99 1014.5
20260901124927 68 155 0.0 0.0 0.00 0.02 0.02 99 1014.3
20260901124422 68 155 0.0 0.0 0.00 0.02 0.02 99 1014.3
20260901123917 68 155 0.0 0.9 0.00 0.02 0.02 99 1014.3
20260901123412 68 155 0.9 0.9 0.00 0.02 0.02 99 1014.5
20260901122910 68 155 0.0 0.0 0.00 0.02 0.02 99 1014.5
20260901122405 67 155 0.0 0.0 0.00 0.02 0.02 99 1014.4
20260901121904 67 155 0.0 0.0 0.00 0.02 0.02 99 1014.3
20260901121359 67 155 0.0 0.0 0.00 0.02 0.02 99 1014.4
20260901120855 67 155 0.0 0.0 0.00 0.02 0.02 99 1014.4
20260901120349 67 155 0.0 0.0 0.00 0.02 0.02 99 1014.3
20260901115845 67 155 0.0 0.0 0.00 0.02 0.02 99 1014.3
20260901115339 67 155 0.0 0.0 0.00 0.02 0.02 99 1014.5
20260901114837 66 155 0.0 0.9 0.00 0.02 0.02 99 1014.2
20260901114337 66 155 0.9 0.9 0.00 0.02 0.02 99 1014.2
20260901113836 66 155 0.0 0.0 0.00 0.02 0.02 99 1014.1
20260901113335 66 155 0.0 0.0 0.00 0.02 0.02 99 1014.1
20260901112830 66 155 0.0 0.0 0.00 0.02 0.02 99 1014.2
20260901112330 66 155 0.0 0.0 0.00 0.02 0.02 99 1014.1
20260901111825 66 155 0.0 0.0 0.00 0.02 0.02 99 1014.2
20260901111323 65 155 0.0 0.9 0.00 0.02 0.02 99 1014.2
20260901110822 65 154 0.0 0.0 0.00 0.02 0.02 99 1014.1
20260901110318 65 154 0.0 0.0 0.00 0.02 0.02 99 1014.1
20260901105814 65 154 0.0 0.0 0.00 0.02 0.02 99 1014.2
20260901105308 65 154 0.0 0.0 0.00 0.02 0.02 99 1014.3
20260901104804 65 154 0.0 0.0 0.00 0.02 0.02 99 1014.4
20260901104259 65 154 0.0 0.0 0.00 0.02 0.02 99 1014.2
20260901103755 65 154 0.0 0.0 0.00 0.02 0.02 99 1014.2
20260901103249 65 154 0.0 0.0 0.00 0.02 0.02 99 1014.2
20260901102744 65 154 0.0 0.0 0.07 0.02 0.02 99 1014.2
20260901102239 65 154 0.0 0.0 0.07 0.02 0.02 99 1014.4
20260901101735 65 154 0.0 0.0 0.00 0.01 0.01 99 1014.4
20260901101234 65 154 0.0 0.0 0.00 0.01 0.01 99 1014.2
20260901100734 65 154 0.0 0.0 0.00 0.01 0.01 99 1014.5
20260901100229 65 154 0.0 0.0 0.00 0.01 0.01 99 1014.4
20260901095727 65 154 0.0 0.0 0.00 0.01 0.01 99 1014.7
20260901095224 65 154 0.0 0.0 0.00 0.01 0.01 99 1014.5
20260901094719 65 154 0.0 0.0 0.00 0.01 0.01 99 1014.5
20260901094214 65 154 0.0 0.0 0.00 0.01 0.01 99 1014.6
20260901093709 65 154 0.0 0.0 0.00 0.01 0.01 99 1014.4
20260901093208 65 154 0.0 0.0 0.00 0.01 0.01 99 1014.4
20260901092704 65 154 0.0 0.0 0.00 0.01 0.01 99 1014.5
20260901092200 65 154 0.0 0.0 0.00 0.01 0.01 99 1014.3
20260901091655 65 154 0.0 0.0 0.00 0.01 0.01 99 1014.4
20260901091150 65 154 0.0 0.0 0.00 0.01 0.01 99 1014.3
20260901090645 65 154 0.0 0.0 0.00 0.01 0.01 99 1014.4
20260901090140 65 154 0.0 0.0 0.00 0.01 0.01 99 1014.4
20260901085636 65 154 0.0 0.0 0.00 0.01 0.01 99 1014.2
20260901085131 65 154 0.0 0.0 0.00 0.01 0.01 99 1014.4
20260901084628 66 154 0.0 0.0 0.00 0.01 0.01 99 1014.6
20260901084124 66 154 0.0 0.0 0.00 0.01 0.01 99 1014.4
20260901083624 66 154 0.0 0.0 0.00 0.01 0.01 99 1014.5
20260901083122 66 154 0.0 0.0 0.00 0.01 0.01 99 1014.6
20260901082617 66 154 0.0 0.0 0.00 0.01 0.01 99 1014.5
20260901082112 66 154 0.0 0.0 0.00 0.01 0.01 99 1014.5
20260901081608 66 154 0.0 0.0 0.00 0.01 0.01 99 1014.7
20260901081108 66 154 0.0 0.0 0.00 0.01 0.01 99 1014.8
20260901080602 66 154 0.0 0.0 0.00 0.01 0.01 99 1014.8
20260901080101 66 155 0.0 0.0 0.00 0.01 0.01 99 1014.8
20260901075556 66 155 0.0 0.0 0.00 0.01 0.01 99 1014.7
20260901075056 66 155 0.0 0.0 0.00 0.01 0.01 99 1014.8
20260901074556 65 155 0.0 0.0 0.00 0.01 0.01 99 1014.9
20260901074051 65 155 0.0 0.0 0.00 0.01 0.01 99 1014.9
20260901073548 65 155 0.0 0.0 0.00 0.01 0.01 99 1014.8
20260901073048 65 155 0.0 0.0 0.00 0.01 0.01 99 1014.8
20260901072543 65 155 0.0 0.0 0.00 0.01 0.01 99 1014.9
20260901072037 65 155 0.0 0.0 0.00 0.01 0.01 99 1014.9
20260901071532 65 155 0.0 0.0 0.00 0.01 0.01 99 1014.9
20260901071030 65 155 0.0 0.0 0.00 0.01 0.01 99 1015.1
20260901070526 65 155 0.0 0.0 0.00 0.01 0.01 99 1015.2
20260901070021 65 155 0.0 0.0 0.00 0.01 0.01 99 1014.9
20260901065515 65 155 0.0 0.0 0.00 0.01 0.01 99 1015.0
20260901065010 65 155 0.0 0.0 0.00 0.01 0.01 99 1015.3
20260901064507 66 155 0.0 0.0 0.00 0.01 0.01 99 1015.1
20260901064004 66 155 0.0 0.0 0.00 0.01 0.01 99 1015.1
20260901063500 66 155 0.0 0.0 0.00 0.01 0.01 99 1015.0
20260901062955 66 155 0.0 0.0 0.00 0.01 0.01 99 1015.2
20260901062451 66 155 0.0 0.0 0.00 0.01 0.01 99 1015.2
20260901061947 66 155 0.0 0.0 0.00 0.01 0.01 99 1015.4
20260901061443 66 155 0.0 0.0 0.00 0.01 0.01 99 1015.4
20260901060942 66 155 0.0 0.0 0.00 0.01 0.01 99 1015.3
20260901060437 66 155 0.0 0.0 0.00 0.01 0.01 99 1015.5
20260901055932 66 155 0.0 0.0 0.00 0.01 0.01 99 1015.2
20260901055429 66 155 0.0 0.0 0.00 0.01 0.01 99 1015.3
20260901054925 66 155 0.0 0.0 0.00 0.01 0.01 99 1015.2
20260901054422 66 155 0.0 0.0 0.00 0.01 0.01 99 1015.3
20260901053918 66 155 0.0 0.0 0.00 0.01 0.01 99 1015.3
20260901053413 66 155 0.0 0.0 0.00 0.01 0.01 99 1015.4
20260901052908 66 155 0.0 0.0 0.00 0.01 0.01 99 1015.6
20260901052403 66 155 0.0 0.0 0.00 0.01 0.01 99 1015.8
20260901051902 66 155 0.0 0.0 0.00 0.01 0.01 99 1015.8
20260901051357 66 155 0.0 0.0 0.00 0.01 0.01 99 1015.6
20260901050852 66 155 0.0 0.0 0.00 0.01 0.01 99 1015.8
20260901050348 66 155 0.0 0.0 0.00 0.01 0.01 99 1015.6
20260901045842 66 155 0.0 0.0 0.00 0.01 0.01 99 1015.6
20260901045342 66 155 0.0 0.0 0.00 0.01 0.01 99 1015.5
20260901044838 66 155 0.0 0.0 0.00 0.01 0.01 99 1015.7
20260901044334 66 155 0.0 0.0 0.00 0.01 0.01 99 1015.5
20260901043829 66 155 0.0 0.0 0.00 0.01 0.01 99 1015.6
20260901043325 66 155 0.0 0.0 0.00 0.01 0.01 99 1015.6
20260901042824 66 155 0.0 0.0 0.00 0.01 0.01 99 1015.7
20260901042319 66 155 0.0 0.0 0.00 0.01 0.01 99 1016.0
20260901041815 66 155 0.0 0.0 0.00 0.01 0.01 99 1016.2
20260901041310 66 155 0.0 0.0 0.05 0.01 0.01 99 1016.0
20260901040804 66 155 0.0 0.0 0.05 0.01 0.01 99 1015.8
20260901040303 66 155 0.0 0.0 0.05 0.01 0.01 99 1016.1
20260901035803 66 155 0.0 0.9 0.00 0.11 0.11 99 1016.0
20260901035305 66 155 0.0 0.0 0.00 0.11 0.11 99 1016.0
20260901034800 66 155 0.0 0.0 0.00 0.11 0.11 99 1015.7
20260901034255 66 155 0.0 0.0 0.00 0.11 0.11 99 1016.2
20260901033750 66 155 0.0 0.0 0.00 0.11 0.11 99 1016.1
20260901033249 66 155 0.0 0.0 0.00 0.11 0.11 99 1016.0
20260901032748 66 155 0.0 0.9 0.00 0.11 0.11 99 1016.1
20260901032242 66 155 0.0 0.9 0.00 0.11 0.11 99 1016.0
20260901031737 66 162 0.0 0.9 0.00 0.11 0.11 99 1015.8
20260901031233 66 167 0.0 0.0 0.00 0.11 0.11 99 1016.0
20260901030733 66 182 0.0 0.0 0.00 0.11 0.11 99 1016.0
20260901030229 66 170 0.9 0.9 0.00 0.11 0.11 99 1016.1
20260901025728 66 147 0.9 0.9 0.00 0.11 0.11 99 1016.0
20260901025223 66 147 0.0 0.0 0.07 0.11 0.11 99 1016.0
20260901024717 66 147 0.0 0.0 0.07 0.11 0.11 99 1016.1
20260901024217 66 175 0.0 0.0 0.00 0.10 0.10 99 1016.2
20260901023715 66 175 0.0 0.0 0.05 0.10 0.10 99 1016.2
20260901023210 66 175 0.0 0.0 0.05 0.10 0.10 99 1016.3
20260901022706 66 172 0.0 0.0 0.00 0.09 0.09 99 1016.5
20260901022201 66 171 0.0 0.0 0.00 0.09 0.09 99 1016.4
20260901021656 66 171 0.0 0.0 0.00 0.09 0.09 99 1016.5
20260901021151 66 186 0.9 1.7 0.00 0.09 0.09 99 1016.5
20260901020647 66 177 0.0 0.9 0.00 0.09 0.09 99 1016.5
20260901020142 66 177 0.0 0.0 0.00 0.09 0.09 99 1016.4
20260901015637 66 155 0.0 0.0 0.00 0.09 0.09 99 1016.6
20260901015137 66 155 0.0 0.0 0.00 0.09 0.09 99 1016.6
20260901014632 66 155 0.0 0.0 0.00 0.09 0.09 99 1016.5
20260901014128 66 155 0.0 0.0 0.00 0.09 0.09 99 1016.8
20260901013624 66 166 0.0 0.0 0.00 0.09 0.09 99 1016.8
20260901013119 66 166 0.0 0.0 0.00 0.09 0.09 99 1016.7
20260901012619 66 166 0.0 0.0 0.00 0.09 0.09 99 1016.6
20260901012114 66 166 0.0 0.0 0.00 0.09 0.09 99 1016.7
20260901011611 66 155 0.0 0.0 0.00 0.09 0.09 99 1016.5
20260901011109 66 155 0.0 0.0 0.00 0.09 0.09 99 1016.7
20260901010604 66 155 0.0 0.0 0.00 0.09 0.09 99 1016.7
20260901005558 66 155 0.0 0.0 0.00 0.09 0.09 99 1016.5
20260901005053 66 155 0.0 0.0 0.00 0.09 0.09 99 1016.6
20260901004552 66 155 0.0 0.0 0.00 0.09 0.09 99 1016.6
20260901004047 66 155 0.0 0.0 0.00 0.09 0.09 99 1016.6
20260901003542 66 155 0.0 0.0 0.00 0.09 0.09 99 1016.8
20260901003040 66 155 0.0 0.0 0.00 0.09 0.09 99 1016.7
20260901002540 66 154 0.0 0.0 0.00 0.09 0.09 99 1016.6
20260901002035 66 154 0.0 0.0 0.00 0.09 0.09 99 1016.6
20260901001530 66 154 0.0 0.0 0.00 0.09 0.09 99 1016.6
20260901001025 66 154 0.0 0.0 0.00 0.09 0.09 99 1016.6
20260901000526 66 154 0.9 0.9 0.00 0.09 0.09 99 1016.6
20260901000021 66 154 0.0 0.0 0.00 0.09 0.09 99 1016.6
20260831235515 66 154 0.0 0.0 0.07 0.09 0.09 99 1016.6
20260831235011 66 154 0.0 0.0 0.07 0.09 0.09 99 1016.6
20260831234505 66 154 0.0 0.0 0.07 0.09 0.09 99 1016.7
20260831234001 66 154 0.0 0.0 0.00 0.08 0.08 99 1016.6
20260831233455 66 154 0.0 0.0 0.00 0.08 0.08 99 1016.6
20260831232951 66 154 0.0 0.0 0.00 0.08 0.08 99 1016.7
20260831232447 66 154 0.0 0.0 0.00 0.08 0.08 99 1016.6
20260831231942 66 187 0.0 0.9 0.00 0.08 0.08 99 1017.0
20260831231439 66 187 0.0 0.0 0.05 0.08 0.08 99 1016.9
20260831230934 67 187 0.0 0.0 0.05 0.08 0.08 99 1016.7
20260831230429 67 191 0.0 0.0 0.00 0.07 0.07 99 1016.8
20260831225923 67 191 0.0 0.0 0.00 0.07 0.07 99 1017.0
20260831225419 67 191 0.0 0.0 0.00 0.07 0.07 99 1017.1
20260831224914 67 191 0.0 0.0 0.00 0.07 0.07 99 1017.2
20260831224413 67 191 0.0 0.0 0.00 0.07 0.07 99 1016.8
20260831223908 67 191 0.0 0.0 0.00 0.07 0.07 99 1016.9
20260831223404 67 191 0.0 0.0 0.00 0.07 0.07 99 1017.0
20260831222901 67 191 0.0 0.0 0.00 0.07 0.07 99 1016.9
20260831222356 67 191 0.0 0.0 0.00 0.07 0.07 99 1017.1
20260831221851 67 191 0.0 0.0 0.00 0.07 0.07 99 1017.1
20260831221347 67 191 0.0 0.0 0.00 0.07 0.07 99 1017.1
20260831220841 67 191 0.0 0.0 0.00 0.07 0.07 99 1017.1
20260831220337 67 191 0.0 0.0 0.00 0.07 0.07 99 1017.0
20260831215832 67 191 0.0 0.0 0.00 0.07 0.07 99 1017.2
20260831215328 67 191 0.0 0.0 0.00 0.07 0.07 99 1017.2
20260831214824 67 191 0.0 0.0 0.00 0.07 0.07 99 1017.1
20260831214322 68 191 0.0 0.0 0.00 0.07 0.07 99 1017.1
20260831213816 68 192 0.0 0.0 0.00 0.07 0.07 99 1017.1
20260831213313 68 149 0.0 0.9 0.00 0.07 0.07 99 1017.0
20260831212808 68 149 0.0 0.0 0.00 0.07 0.07 99 1017.2
20260831212306 68 166 0.0 0.9 0.00 0.07 0.07 99 1017.1
20260831211803 68 172 0.9 0.9 0.00 0.07 0.07 99 1017.2
20260831211258 68 138 0.9 0.9 0.00 0.07 0.07 99 1017.3
20260831210752 68 206 1.7 1.7 0.00 0.07 0.07 99 1017.2
20260831210249 69 215 0.0 0.0 0.00 0.07 0.07 99 1017.2
20260831205748 69 215 0.0 0.0 0.00 0.07 0.07 99 1017.1
20260831205244 69 215 0.0 0.0 0.00 0.07 0.07 99 1017.3
20260831204743 68 222 0.9 0.9 0.00 0.07 0.07 99 1017.2
20260831204243 68 222 0.9 0.9 0.00 0.07 0.07 99 1017.3
20260831203742 69 222 0.0 0.0 0.00 0.07 0.07 98 1017.4
20260831203237 69 222 0.0 0.9 0.00 0.07 0.07 98 1017.3
20260831202735 69 222 0.0 0.9 0.00 0.07 0.07 98 1017.6
20260831202231 69 216 0.9 0.9 0.00 0.07 0.07 98 1017.5
20260831201725 69 210 0.0 0.9 0.00 0.07 0.07 99 1017.6
20260831201224 68 210 0.0 0.0 0.00 0.07 0.07 99 1017.5
20260831200720 68 217 1.7 1.7 0.00 0.07 0.07 99 1017.5
20260831200220 68 196 0.0 0.0 0.00 0.07 0.07 99 1017.5
20260831195716 68 179 0.0 0.9 0.00 0.07 0.07 99 1017.5
20260831195211 68 179 0.0 0.0 0.00 0.07 0.07 99 1017.6
20260831194706 67 203 0.9 0.9 0.00 0.07 0.07 99 1017.7
20260831194202 68 115 0.0 0.0 0.00 0.07 0.07 99 1017.7
20260831193655 67 115 0.0 0.0 0.07 0.07 0.07 99 1017.9
20260831193151 67 115 0.0 0.0 0.07 0.07 0.07 99 1017.9
20260831192646 67 115 0.0 0.0 0.00 0.06 0.06 99 1018.0
20260831192141 67 116 0.0 0.0 0.00 0.06 0.06 99 1018.1
20260831191637 67 116 0.0 0.0 0.00 0.06 0.06 99 1018.1
20260831191133 67 115 0.0 0.0 0.00 0.06 0.06 99 1018.0
20260831190628 67 115 0.0 0.0 0.05 0.06 0.06 99 1018.3
20260831190126 67 116 0.0 0.0 0.05 0.06 0.06 99 1018.3
20260831185622 67 116 0.0 0.0 0.00 0.05 0.05 99 1018.5
20260831185118 67 116 0.0 0.0 0.07 0.05 0.05 99 1018.6
20260831184617 67 116 0.0 0.0 0.07 0.05 0.05 99 1018.6
20260831184113 67 115 0.0 0.0 0.07 0.05 0.05 99 1018.7
20260831183607 67 115 0.0 0.0 0.05 0.04 0.04 98 1018.6
20260831183107 68 115 0.0 0.0 0.05 0.04 0.04 98 1018.7
20260831182606 68 115 0.0 0.0 0.00 0.03 0.03 98 1018.5
20260831182102 68 115 0.0 0.0 0.07 0.03 0.03 98 1018.9
20260831181601 69 115 0.0 0.0 0.12 0.03 0.03 96 1018.9
20260831181056 69 115 0.0 0.0 0.12 0.02 0.02 96 1018.6
20260831180551 69 115 0.9 0.9 0.07 0.01 0.01 94 1018.9
20260831180047 69 115 0.0 0.0 0.00 0.00 0.00 92 1019.0